Thermal, CA

8:26 PM PST on January 20, 2017 (GMT -0800)
Desert Resorts Regional

Weather History for KTRM - April, 2013

Change the Weather History Date:

Tuesday, April 16, 2013

  Actual Average Record
Temperature  
Mean Temperature 67 °F 70 °F  
Max Temperature 76 °F 87 °F 105 °F (1954)
Min Temperature 57 °F 53 °F 42 °F (1967)
Degree Days  
Heating Degree Days 0 1  
Month to date heating degree days 0 17  
Since 1 July heating degree days 1122 1174  
Cooling Degree Days 2 6  
Month to date cooling degree days 123 75  
Year to date cooling degree days 285 149  
Growing Degree Days 16 (Base 50)    
Moisture  
Dew Point 33 °F    
Average Humidity 33    
Maximum Humidity 46    
Minimum Humidity 19    
Precipitation  
Precipitation 0.00 in 0.01 in 0.01 in (1995)
Month to date precipitation 0.00 0.05  
Year to date precipitation 0.44 1.76  
Since 1 July precipitation 2.62  
Snow  
Snow 0.00 in - - ()
Month to date snowfall 0.0  
Year to date snowfall 0.0  
Snow Depth 0.00 in    
Sea Level Pressure  
Sea Level Pressure 29.77 in    
Wind  
Wind Speed 14 mph (NNW)    
Max Wind Speed 23 mph    
Max Gust Speed 30 mph    
Visibility 10 miles    
Events      
T = Trace of Precipitation, MM = Missing Value Source: NWS Daily Summary

Daily Weather History Graph

Daily Weather History Graph

Search for Another Location

Airport or City:

Trip Planner

Search our weather history database for the weather conditions in past years. The results will help you decide how hot, cold, wet, or windy it might be!

Date:

Astronomy

Apr. 16, 2013 Rise Set
Actual Time 6:12 AM PDT 7:16 PM PDT
Civil Twilight 5:46 AM PDT 7:42 PM PDT
Nautical Twilight 5:16 AM PDT 8:12 PM PDT
Astronomical Twilight 4:44 AM PDT 8:44 PM PDT
Moon 10:42 AM PDT (4/16) 12:09 AM PDT (4/16)
Length of Visible Light 13h 55m
Length of Day
13h 04m
Waxing Crescent, 34% of the Moon is Illuminated
Apr 16
Waxing Crescent
Apr 18
First Quarter
Apr 25
Full
May 2
Last Quarter
May 9
New

Hourly Weather History & Observations

Time (PDT) Temp. Dew Point Humidity Pressure Visibility Wind Dir Wind Speed Gust Speed Precip Events Conditions
12:52 AM 62.1 °F 41.0 °F 46% 29.69 in 10.0 mi NNW 12.7 mph 20.7 mph N/A   Clear
1:52 AM 61.0 °F 39.0 °F 44% 29.69 in 10.0 mi NNW 12.7 mph 20.7 mph N/A   Clear
2:52 AM 60.1 °F 39.0 °F 46% 29.70 in 10.0 mi NNW 16.1 mph 24.2 mph N/A   Clear
3:52 AM 59.0 °F 37.9 °F 46% 29.70 in 10.0 mi NNW 16.1 mph 23.0 mph N/A   Clear
4:52 AM 57.9 °F 36.0 °F 44% 29.71 in 10.0 mi NW 13.8 mph 23.0 mph N/A   Clear
5:52 AM 57.9 °F 35.1 °F 42% 29.73 in 10.0 mi NNW 13.8 mph 21.9 mph N/A   Clear
6:52 AM 57.9 °F 36.0 °F 44% 29.75 in 10.0 mi NNW 11.5 mph - N/A   Clear
7:52 AM 61.0 °F 35.1 °F 38% 29.78 in 10.0 mi NNW 15.0 mph - N/A   Clear
8:52 AM 63.0 °F 34.0 °F 34% 29.79 in 10.0 mi NNW 20.7 mph 26.5 mph N/A   Clear
9:52 AM 66.9 °F 32.0 °F 27% 29.81 in 10.0 mi NNW 15.0 mph 23.0 mph N/A   Clear
10:52 AM 70.0 °F 30.0 °F 23% 29.82 in 10.0 mi NNW 15.0 mph - N/A   Clear
11:52 AM 71.1 °F 30.0 °F 22% 29.81 in 10.0 mi Variable 6.9 mph 17.3 mph N/A   Clear
12:52 PM 73.0 °F 30.9 °F 21% 29.78 in 10.0 mi NW 9.2 mph - N/A   Clear
1:52 PM 73.0 °F 30.9 °F 21% 29.78 in 10.0 mi West 8.1 mph - N/A   Clear
2:52 PM 75.0 °F 30.9 °F 20% 29.77 in 10.0 mi WNW 10.4 mph 16.1 mph N/A   Clear
3:52 PM 75.0 °F 30.9 °F 20% 29.75 in 10.0 mi NNW 15.0 mph 18.4 mph N/A   Clear
4:52 PM 75.0 °F 30.0 °F 19% 29.74 in 10.0 mi NNW 17.3 mph 23.0 mph N/A   Clear
5:52 PM 73.0 °F 32.0 °F 22% 29.74 in 10.0 mi NNW 19.6 mph 28.8 mph N/A   Clear
6:52 PM 70.0 °F 32.0 °F 25% 29.75 in 10.0 mi NNW 18.4 mph 25.3 mph N/A   Clear
7:52 PM 66.9 °F 34.0 °F 30% 29.78 in 10.0 mi NNW 16.1 mph 24.2 mph N/A   Clear
8:52 PM 64.9 °F 35.1 °F 33% 29.81 in 10.0 mi NNW 19.6 mph 27.6 mph N/A   Clear
9:52 PM 64.0 °F 28.9 °F 27% 29.84 in 10.0 mi NNW 24.2 mph 33.4 mph N/A   Clear
10:52 PM 63.0 °F 28.0 °F 27% 29.86 in 10.0 mi NNW 17.3 mph 23.0 mph N/A   Partly Cloudy
11:52 PM 63.0 °F 26.1 °F 25% 29.88 in 10.0 mi NNW 13.8 mph 21.9 mph N/A   Overcast